Hugo, OK

9:48 PM CDT on June 27, 2017 (GMT -0500)
Stamper Municipal

Weather History for KHHW - January, 2014

Change the Weather History Date:

Friday, January 17, 2014

  Actual Average Record
Temperature  
Mean Temperature 44 °F -  
Max Temperature 52 °F 53 °F 66 °F (2015)
Min Temperature 37 °F 32 °F 27 °F (2016)
Degree Days  
Heating Degree Days 20    
Moisture  
Dew Point 16 °F    
Average Humidity 31    
Maximum Humidity 51    
Minimum Humidity 20    
Precipitation  
Precipitation 0.00 in - - ()
Sea Level Pressure  
Sea Level Pressure 30.23 in    
Wind  
Wind Speed 11 mph (NW)    
Max Wind Speed 21 mph    
Max Gust Speed 30 mph    
Visibility 10 miles    
Events      
Averages and records for this station are not official NWS values.
T = Trace of Precipitation, MM = Missing Value Source: NWS Daily Summary

Daily Weather History Graph

Daily Weather History Graph

Search for Another Location

Airport or City:

Trip Planner

Search our weather history database for the weather conditions in past years. The results will help you decide how hot, cold, wet, or windy it might be!

Date:

Astronomy

Jan. 17, 2014 Rise Set
Actual Time 7:26 AM CST 5:38 PM CST
Civil Twilight 6:59 AM CST 6:05 PM CST
Nautical Twilight 6:29 AM CST 6:35 PM CST
Astronomical Twilight 5:59 AM CST 7:05 PM CST
Moon 7:18 PM CST (1/17) 8:01 AM CST (1/17)
Length of Visible Light 11h 05m
Length of Day
10h 11m
Full, 98% of the Moon is Illuminated
Jan 17
Full
Jan 23
Last Quarter
Jan 30
New
Feb 6
First Quarter
Feb 14
Full

Hourly Weather History & Observations

Time (CST) Temp. Windchill Dew Point Humidity Pressure Visibility Wind Dir Wind Speed Gust Speed Precip Events Conditions
12:15 AM 51.3 °F - 13.8 °F 23% 30.13 in 10.0 mi NW 9.2 mph - N/A   Mostly Cloudy
12:35 AM 49.8 °F - 15.6 °F 26% 30.13 in 10.0 mi NW 6.9 mph - N/A   Scattered Clouds
12:55 AM 50.5 °F - 15.3 °F 25% 30.15 in 10.0 mi NNW 10.4 mph - N/A   Scattered Clouds
1:15 AM 49.8 °F - 16.5 °F 27% 30.15 in 10.0 mi NNW 9.2 mph - N/A   Clear
1:35 AM 50.9 °F - 16.0 °F 25% 30.16 in 10.0 mi North 10.4 mph - N/A   Clear
1:55 AM 50.2 °F - 16.3 °F 26% 30.17 in 10.0 mi North 18.4 mph 25.3 mph N/A   Clear
2:15 AM 49.3 °F - 16.7 °F 27% 30.17 in 10.0 mi North 12.7 mph 18.4 mph N/A   Clear
2:35 AM 48.7 °F - 16.3 °F 28% 30.19 in 10.0 mi NNW 12.7 mph 20.7 mph N/A   Clear
2:55 AM 48.0 °F - 16.7 °F 29% 30.19 in 10.0 mi NNW 11.5 mph 17.3 mph N/A   Clear
3:15 AM 47.3 °F - 17.6 °F 31% 30.20 in 10.0 mi NNW 11.5 mph - N/A   Clear
3:35 AM 47.3 °F - 15.8 °F 28% 30.19 in 10.0 mi NNW 20.7 mph 26.5 mph N/A   Clear
3:55 AM 46.0 °F 39.0 °F 15.6 °F 30% 30.21 in 10.0 mi NNW 17.3 mph 24.2 mph N/A   Clear
4:15 AM 45.0 °F 37.1 °F 15.6 °F 31% 30.21 in 10.0 mi North 19.6 mph 25.3 mph N/A   Clear
4:35 AM 43.9 °F 37.5 °F 15.8 °F 32% 30.23 in 10.0 mi NNW 12.7 mph 20.7 mph N/A   Clear
4:55 AM 43.5 °F 36.4 °F 15.4 °F 32% 30.23 in 10.0 mi NNW 15.0 mph 24.2 mph N/A   Clear
5:15 AM 42.4 °F 35.7 °F 15.1 °F 33% 30.24 in 10.0 mi NNW 12.7 mph - N/A   Clear
5:35 AM 41.9 °F 34.3 °F 15.8 °F 35% 30.25 in 10.0 mi NNW 15.0 mph 20.7 mph N/A   Clear
5:55 AM 41.2 °F 34.5 °F 16.7 °F 37% 30.26 in 10.0 mi NNW 11.5 mph 18.4 mph N/A   Clear
6:15 AM 40.6 °F 33.4 °F 17.6 °F 39% 30.26 in 10.0 mi NNW 12.7 mph 17.3 mph N/A   Clear
6:35 AM 40.6 °F 33.4 °F 18.3 °F 41% 30.26 in 10.0 mi NNW 12.7 mph 20.7 mph N/A   Clear
6:55 AM 40.1 °F 32.7 °F 18.3 °F 42% 30.26 in 10.0 mi NNW 12.7 mph 18.4 mph N/A   Clear
7:15 AM 39.2 °F 33.0 °F 18.3 °F 43% 30.27 in 10.0 mi NNW 9.2 mph - N/A   Clear
7:35 AM 38.3 °F 31.9 °F 18.1 °F 44% 30.28 in 10.0 mi NNW 9.2 mph - N/A   Clear
7:55 AM 37.8 °F 34.2 °F 18.3 °F 46% 30.28 in 10.0 mi NW 4.6 mph - N/A   Clear
8:15 AM 38.5 °F 33.4 °F 18.5 °F 45% 30.29 in 10.0 mi NW 6.9 mph - N/A   Clear
8:35 AM 40.3 °F 33.9 °F 18.5 °F 42% 30.29 in 10.0 mi NNW 10.4 mph - N/A   Clear
8:55 AM 41.5 °F 35.9 °F 18.1 °F 39% 30.29 in 10.0 mi NNW 9.2 mph - N/A   Clear
9:15 AM 42.8 °F 36.2 °F 18.3 °F 37% 30.31 in 10.0 mi NNW 12.7 mph - N/A   Clear
9:35 AM 43.0 °F 35.1 °F 17.6 °F 36% 30.32 in 10.0 mi NNW 17.3 mph 23.0 mph N/A   Clear
9:55 AM 44.1 °F 37.7 °F 16.7 °F 33% 30.32 in 10.0 mi NNW 12.7 mph 20.7 mph N/A   Clear
10:15 AM 44.8 °F 37.4 °F 16.0 °F 31% 30.33 in 10.0 mi NNW 17.3 mph 20.7 mph N/A   Clear
10:35 AM 45.7 °F 39.1 °F 13.8 °F 28% 30.33 in 10.0 mi NW 15.0 mph 23.0 mph N/A   Clear
10:55 AM 46.2 °F 39.8 °F 11.3 °F 24% 30.33 in 10.0 mi NNW 15.0 mph 29.9 mph N/A   Clear
11:15 AM 46.4 °F 39.2 °F 14.7 °F 28% 30.33 in 10.0 mi NNW 18.4 mph 21.9 mph N/A   Clear
11:35 AM 46.8 °F - 15.8 °F 29% 30.32 in 10.0 mi NNW 12.7 mph 17.3 mph N/A   Clear
11:55 AM 47.8 °F - 15.3 °F 27% 30.31 in 10.0 mi NNW 13.8 mph 23.0 mph N/A   Clear
12:15 PM 48.4 °F - 15.1 °F 26% 30.28 in 10.0 mi NW 18.4 mph 27.6 mph N/A   Clear
12:35 PM 49.3 °F - 15.8 °F 26% 30.27 in 10.0 mi NNW 16.1 mph 20.7 mph N/A   Clear
12:55 PM 50.2 °F - 15.6 °F 25% 30.26 in 10.0 mi NW 15.0 mph 19.6 mph N/A   Clear
1:15 PM 50.5 °F - 14.7 °F 24% 30.25 in 10.0 mi NW 12.7 mph 21.9 mph N/A   Clear
1:35 PM 50.9 °F - 14.7 °F 24% 30.24 in 10.0 mi NNW 11.5 mph 17.3 mph N/A   Clear
1:55 PM 51.8 °F - 16.0 °F 24% 30.24 in 10.0 mi NW 12.7 mph 23.0 mph N/A   Clear
2:15 PM 52.0 °F - 15.4 °F 24% 30.23 in 10.0 mi NNW 10.4 mph 17.3 mph N/A   Clear
2:35 PM 52.7 °F - 15.1 °F 23% 30.23 in 10.0 mi WNW 12.7 mph 19.6 mph N/A   Clear
2:55 PM 52.7 °F - 12.9 °F 21% 30.23 in 10.0 mi NNW 13.8 mph 23.0 mph N/A   Clear
3:15 PM 52.7 °F - 12.6 °F 20% 30.23 in 10.0 mi NW 13.8 mph 20.7 mph N/A   Clear
3:35 PM 52.9 °F - 12.2 °F 20% 30.23 in 10.0 mi NW 12.7 mph 17.3 mph N/A   Clear
3:55 PM 52.9 °F - 12.2 °F 20% 30.23 in 10.0 mi NNW 10.4 mph - N/A   Clear
4:15 PM 52.9 °F - 13.6 °F 21% 30.23 in 10.0 mi WNW 11.5 mph 16.1 mph N/A   Clear
4:35 PM 52.3 °F - 13.8 °F 22% 30.23 in 10.0 mi West 9.2 mph - N/A   Clear
4:55 PM 51.4 °F - 13.6 °F 22% 30.23 in 10.0 mi WNW 6.9 mph - N/A   Clear
5:15 PM 50.0 °F - 14.2 °F 24% 30.23 in 10.0 mi WNW 5.8 mph - N/A   Clear
5:35 PM 48.0 °F - 14.7 °F 26% 30.23 in 10.0 mi WNW 5.8 mph - N/A   Clear
5:55 PM 46.6 °F - 14.9 °F 28% 30.23 in 10.0 mi WNW 5.8 mph - N/A   Clear
6:15 PM 46.6 °F - 14.7 °F 28% 30.23 in 10.0 mi WNW 4.6 mph - N/A   Clear
6:35 PM 46.6 °F - 14.0 °F 27% 30.23 in 10.0 mi West 4.6 mph - N/A   Clear
6:55 PM 46.4 °F 45.2 °F 13.5 °F 27% 30.23 in 10.0 mi West 3.5 mph - N/A   Clear
7:15 PM 46.0 °F 43.9 °F 13.1 °F 27% 30.23 in 10.0 mi West 4.6 mph - N/A   Clear
7:35 PM 45.1 °F 43.7 °F 13.6 °F 28% 30.22 in 10.0 mi SW 3.5 mph - N/A   Clear
7:55 PM 43.0 °F 40.3 °F 14.0 °F 31% 30.22 in 10.0 mi WSW 4.6 mph - N/A   Clear
8:15 PM 44.6 °F 41.4 °F 13.3 °F 28% 30.22 in 10.0 mi WSW 5.8 mph - N/A   Clear
8:35 PM 40.6 °F 36.7 °F 16.5 °F 38% 30.22 in 10.0 mi SW 5.8 mph - N/A   Clear
8:55 PM 40.6 °F 37.5 °F 16.3 °F 37% 30.22 in 10.0 mi SW 4.6 mph - N/A   Clear
9:15 PM 41.5 °F 38.6 °F 15.1 °F 34% 30.21 in 10.0 mi SW 4.6 mph - N/A   Clear
9:35 PM 41.5 °F 39.6 °F 15.3 °F 35% 30.21 in 10.0 mi SSW 3.5 mph - N/A   Clear
9:55 PM 40.6 °F 36.7 °F 16.5 °F 38% 30.21 in 10.0 mi SSW 5.8 mph - N/A   Clear
10:15 PM 41.0 °F 39.0 °F 16.0 °F 36% 30.20 in 10.0 mi SSW 3.5 mph - N/A   Clear
10:35 PM 40.1 °F 36.9 °F 16.7 °F 39% 30.20 in 10.0 mi SSW 4.6 mph - N/A   Clear
10:55 PM 40.6 °F 37.5 °F 16.2 °F 37% 30.19 in 10.0 mi SSW 4.6 mph - N/A   Clear
11:15 PM 39.4 °F 35.2 °F 19.6 °F 45% 30.18 in 10.0 mi South 5.8 mph - N/A   Clear
11:35 PM 39.7 °F 35.6 °F 20.5 °F 46% 30.18 in 10.0 mi South 5.8 mph - N/A   Clear
11:55 PM 38.7 °F 33.6 °F 22.1 °F 51% 30.17 in 10.0 mi South 6.9 mph - N/A   Clear